カタログに戻る

COSMOS 2443

GLONASS

運用中ナビゲーションMEO
NORAD 33379·PAYLOAD·🇷🇺 Russia

打ち上げ Sep 25, 2008 から Baikonur Cosmodrome

Loading…

次のパス (今後24時間)

TLE

最新Source: Space-Track

元期: Sep 11, 2026, 22:27 UTC

1 33379U 08046B   26254.93580013 -.00000042  00000-0  00000-0 0  9998
2 33379  65.4201 312.0474 0016748 182.5410 176.4611  2.13099665139799

AllMySatでCOSMOS 2443をリアルタイム追跡

Download on the App Store